FLOCK 2K-12 (42893 NORAD) Tracking and Keplerian Element Data

This shows tracking and keplerian element data for the satellite.

Feedback or suggestion? Click here.




ElementValue
Catalog42893
NameFLOCK 2K-12
Epoch Orbit23477
Epoch Day261.38936241
Epoch Year2021
RAAN109.8924
Inclination96.842
Eccentricity0.0011029
Argument of Perigee80.5116
Mean Anonmoly279.7382
Mean Motion15.47596818
Decay Rate0.00019204
L11 42893U 17042BW 21261.38936241 .00019204 00000-0 37302-3 0 9992
L22 42893 96.8420 109.8924 0011029 80.5116 279.7382 15.47596818234779

Live tracking and technical data element details for FLOCK 2K-12 (NORAD 42893). FLOCK 2K-12 can be tracked NOW for your location showing map with azimuth and elevation plus other details from your city location.

Track the satellite on the map from your city or location and see movement details for azimuth, elevation, latitude, longitude, range, height, and movement on the map or in text.







IsCatalogInMostPopularTable: catalog: 42893, numindb: 523
Update: records affected: 1



GetName: 42893 FLOCK 2K-12

Hit Count: updated at: Sun, 26 Sep 2021 01:14:07 GMT